Other Public Products
Issued by NWS Grand Forks, ND

Home | Current Version | Previous Version | Graphics & Text | Print | Product List | Glossary On
Versions: 1 2 3 4 5 6 7 8 9 10 11 12 13 14 15 16 17 18 19 20 21 22 23 24 25 26 27 28 29 30 31 32 33 34 35 36 37 38 39 40 41 42 43 44 45 46 47 48 49 50
000
FPUS83 KFGF 190210
OPUFGF
PRAIRIE TO PINES WEATHER ROUNDUP
NATIONAL WEATHER SERVICE EASTERN NORTH DAKOTA/GRAND FORKS ND
800 PM CST THU DEC 18 2014

 **SATELLITE DATA USED TO AUGMENT SKY COVER AT AUTOMATED STATIONS**
 *****  WEATHER ACROSS EASTERN NORTH DAKOTA  *****

CITY           SKY/WX    TMP DP  RH WIND       PRES   REMARKS
GRAND FORKS    CLOUDY    20  15  81 S13       30.15F WCI   7
GRAND FORKS AF CLOUDY    19  19 100 S8        30.15S WCI   9
GRAND CITY NWS NOT AVBL
BUXTON         NOT AVBL
DEVILS LAKE    CLOUDY    21  12  68 S13       30.04S WCI   9
FARGO          CLOUDY    21  15  78 S14       30.17F WCI   8
WAHPETON ARPT  CLOUDY    21  18  86 SE7       30.19S WCI  13
$$

 *****  WEATHER ACROSS CENTRAL AND WESTERN NORTH DAKOTA  *****

CITY           SKY/WX    TMP DP  RH WIND       PRES   REMARKS
JAMESTOWN      CLOUDY    23  20  88 S12       30.07S WCI  12
BISMARCK       CLOUDY    27  25  92 S7        30.03S FOG     WCI  19
MINOT          CLOUDY    23  19  85 SE3       29.99S
MINOT AFB      CLOUDY    22  22  99 S5        29.99S WCI  16
GARRISON         N/A     26  22  84 CALM      29.98S
WILLISTON      CLOUDY    28  27  96 S6        29.94F WCI  22
DICKINSON      CLEAR     21  18  88 S8        29.92F FOG     WCI  11
HETTINGER      PTCLDY    23  20  88 CALM      29.97S
$$

 *****  OTHER OBSERVATIONS NORTHEAST NORTH DAKOTA  *****

CITY           SKY/WX    TMP DP  RH WIND       PRES   REMARKS
WALHALLA         N/A     18  18 100 SE8       30.12F WCI   7
LANGDON        CLOUDY    19  16  86 S10       30.05F WCI   8
CAVALIER       CLOUDY    19  16  86 S13       30.13F WCI   7
GRAFTON        NOT AVBL
CANDO          CLOUDY    19  19 100 S9        30.05S FOG     WCI   9
FORT TOTTEN    NOT AVBL
ROLLA          CLOUDY    18  18 100 S9        30.02S FOG     WCI   6
RUGBY          CLOUDY    19  19 100 SE7       30.02S FOG     WCI  10
 ***** THE ABOVE OBSERVATIONS ARE NON NWS ARE NOT QUALITY
        CONTROLLED AND MAY MIS-REPORT RAIN FOR SNOW...
$$

 *****  OTHER OBSERVATIONS SOUTHEAST NORTH DAKOTA *****

CITY           SKY/WX    TMP DP  RH WIND       PRES   REMARKS
COOPERSTOWN    NOT AVBL
VALLEY CITY    CLOUDY    19  19 100 S9        30.10S WCI   9
OAKES          LGT SNOW  25  25 100 S8        30.11F WCI  16
GWINNER        CLOUDY    23  23 100 MISG      30.13F
SHEYENNE NWR     N/A     20  17  86 S9        29.95  WCI   9
BUFFALO        NOT AVBL
WYNDMERE         N/A     21  18  86 S8          N/A  WCI  12
 ***** THE ABOVE OBSERVATIONS ARE NON NWS ARE NOT QUALITY
       CONTROLLED AND MAY MIS-REPORT RAIN FOR SNOW...
$$

  *****  WEATHER ACROSS NORTHERN MINNESOTA  *****

CITY           SKY/WX    TMP DP  RH WIND       PRES   REMARKS
FLAG ISLAND    MOCLDY    16  12  86 S10       30.18S WCI   3
WARROAD        PTCLDY    12   9  85 SE6       30.18F WCI   3
ROSEAU         PTCLDY    18  12  79 SE9       30.17F WCI   6
HALLOCK        PTCLDY    19  16  86 S12       30.15S WCI   7
THF RVR FALLS  CLOUDY    19  16  86 S8        30.16F WCI   9
HALSTAD          N/A     20  14  76 S13         N/A  WCI   8
FOSSTON        CLOUDY    18  16  93 SE9       30.16S WCI   6
BAUDETTE       CLOUDY    19  13  77 S10       30.18F WCI   7
WASKISH        CLOUDY    18  16  93 CALM      30.20S
CROOKSTON      CLOUDY    19  16  86 S9        30.18S WCI   9
$$
  *****  WEATHER ACROSS CENTRAL AND WEST MINNESOTA  *****

CITY           SKY/WX    TMP DP  RH WIND       PRES   REMARKS
BEMIDJI        CLOUDY    17  14  86 S7        30.18R WCI   8
PARK RAPIDS    CLOUDY    18  14  84 SE9       30.17F WCI   7
WADENA         CLOUDY    18  14  86 NW8       30.18F WCI   7
DETROIT LAKES  CLOUDY    21  18  86 SE10      30.16F WCI  10
MOORHEAD       CLOUDY    21  19  93 S12       30.18S WCI   9
FERGUS FALLS   CLOUDY    19  14  79 SE10      30.21F WCI   8
ELBOW LAKE     CLOUDY    19  15  84 SE10      30.19S WCI   7
MORRIS MN      CLOUDY    19  18  93 SE12      30.19S WCI   7
STAPLES        CLOUDY    18  12  79 SE5       30.20F WCI  11
WHEATON        CLOUDY    18  16  93 SE14      30.20S WCI   4
$$
  *****  WEATHER ELSEWHERE ACROSS MINNESOTA  *****

CITY           SKY/WX    TMP DP  RH WIND       PRES   REMARKS
DULUTH         CLOUDY    24  17  74 SE8       30.20F WCI  15
INTRNTL FALLS  CLOUDY    20  16  84 SE3       30.21F
ELY            CLOUDY    23  19  86 CALM      30.22S
CLOQUET        CLOUDY    21  18  86 SW3       30.21S
BRAINERD       CLOUDY    19  15  84 S6        30.22S WCI  11
HIBBING        CLOUDY    23  17  78 SE3       30.20F
ALEXANDRIA     CLOUDY    19  13  77 SE9       30.19F WCI   8
SAINT CLOUD    CLOUDY    21  14  74 SE5       30.24S WCI  15
MINNEAPOLIS    CLOUDY    20  14  77 VRB3      30.28R
$$

  *****  WEATHER ACROSS SOUTH DAKOTA  *****

CITY           SKY/WX    TMP DP  RH WIND       PRES   REMARKS
SIOUX FALLS    CLOUDY    27  23  85 S9        30.17F WCI  18
BROOKINGS      NOT AVBL
WATERTOWN      CLOUDY    24  21  88 S10       30.12S FOG     WCI  14
HURON          CLOUDY    26  23  88 SE7       30.14S WCI  18
SISSETON         N/A     20  18  92 S12       30.16F WCI   8
ABERDEEN       CLOUDY    26  22  84 S10       30.12F WCI  16
MITCHELL       CLOUDY    28  24  85 S8        30.16S WCI  20
PIERRE         CLOUDY    27  24  89 S6        30.07R WCI  20
MOBRIDGE       CLOUDY    27  24  89 SE7       30.02S WCI  19
RAPID CITY     CLEAR     27  22  81 CALM      30.00S
$$

  *****  SOME WEATHER IN NEARBY STATES *****

CITY           SKY/WX    TMP DP  RH WIND       PRES   REMARKS
GLASGOW MT     PTCLDY    23  19  85 CALM      29.91R
GREAT FALLS MT PTCLDY    34  26  72 SW16      29.91R WCI  24
CHEYENNE WY    PTCLDY    28  16  60 W7        30.05R WCI  21
SCOTTSBLUFF NE CLOUDY    13  10  88 CALM      30.07R
OMAHA NE       CLOUDY    31  26  82 SE5       30.24R
DES MOINES IA  CLOUDY    29  22  75 SE3       30.26S
DAVENPORT IA   MOCLDY    23  17  78 CALM      30.28S
CHICAGO IL     CLOUDY    28  19  69 NW6       30.24S WCI  22
EAU CLAIRE WI  CLOUDY    23  18  81 S5        30.26F WCI  17
LA CROSSE WI   CLOUDY    26  18  71 CALM      30.28S
$$

  *****  SOME NATIONAL WEATHER *****

CITY           SKY/WX    TMP DP  RH WIND       PRES   REMARKS
LA GUARDIA NY  PTCLDY    38  27  64 NW14      29.96F
RALEIGH NC     MOCLDY    43  26  51 CALM      30.11S
ATLANTA GA     MOCLDY    45  33  63 NW9       30.14R
NEW ORLEANS LA CLOUDY    59  54  83 NE8       30.14R
OKLAHOMA CITY  DRIZZLE   43  39  87 NE8       30.19R FOG
ALBUQUERQUE NM CLOUDY    40  28  62 NW3       30.12R
SALT LAKE CITY MOCLDY    36  31  82 SW5       30.17R
LOS ANGELES CA PTCLDY    57  52  83 W5        30.18R
BOISE ID       CLOUDY    44  33  65 SE9       30.09R
SEATTLE WA     LGT RAIN  47  41  80 E12       29.76F
$$

*** WEATHER ACROSS MANITOBA...SASKATCHEWAN AND ONTARIO ***
                ***ONTARIO***

CITY           SKY/WX    TMP DP  RH WIND       PRES   REMARKS
GERALDTON      CLEAR     -4  -8  84 W2        30.26S
THUNDER BAY    CLEAR      5   1  85 W5        30.31S WCI  -4
SIOUX LOOKOUT  FLURRIES  12  10  92 VRB2      30.22F
TORONTO        CLOUDY    27  19  74 NW13      30.10F WCI  16
BIG TROUT LK   CLEAR      1  -2  85 SW7       30.17F WCI -11
PICKLE LAKE    PTCLDY     7   0  72 SW10      30.21F WCI  -8
DRYDEN         CLOUDY    18  16  93 S5        30.20F WCI  11
KENORA         NOT AVBL
$$
                *** MANITOBA***

CITY           SKY/WX    TMP DP  RH WIND       PRES   REMARKS
BRANDON        FLURRIES  19  16  86 S5        30.04F WCI  13
DAUPHIN        CLOUDY    12   9  85 S5        30.04S WCI   4
ISLAND LAKE    CLEAR     10   7  85 S7        30.10F WCI   0
PILOT MOUND      N/A     19  18  93 S9          N/A  WCI   9
THE PAS        FLURRIES  14  12  92 S7        29.98S WCI   4
THOMPSON       FLURRIES   7   3  85 S5        30.00S WCI  -2
WINNIPEG       CLOUDY    19  14  79 S10       30.14S WCI   8
LYNN LAKE      FLURRIES  14  12  92 SW8       29.88F WCI   3
GILLAM         FLURRIES   3   0  85 SW7       30.03F WCI  -9
$$
                ***SASKATCHEWAN***

CITY           SKY/WX    TMP DP  RH WIND       PRES   REMARKS
ESTEVAN        FLURRIES  25  23  93 SW8       29.94F WCI  16
KINDERSLEY     FOG       12   9  85 NW2       29.88R VSB 1/8
LLOYDMINSTER   NOT AVBL
PRINCE ALBERT  FLURRIES  19  19 100 CALM      29.90S
REGINA         CLOUDY    25  25 100 SW7       29.90S FOG     WCI  17
YORKTON        CLOUDY    18  14  86 SE8       29.95S WCI   7



USA.gov is the U.S. government's official web portal to all federal, state and local government web resources and services.